Temp
19 19 19 19 19 19 19 19 19 19 18 18 19 19 19 19 19 19 19 19 19 19 19 19 19 19 20 20 20 20 20 20 20 21 21 21 21 21 21 21 20 20 20
17 17 17 17 18 19 19 19 18 20 19 19 19 19 20 20 19 19 19 19 19 19 19 19 19 19 19 20 20 20 20 20 20 20 21 20 20 20 21 21 20 20 20
16 16 16 16 17 17 17 18 18 19 20 19 19 19 19 19 19 19 19 19 19 19 19 19 19 19 19 19 19 19 20 20 20 19 20 21 20 20 20 20 20 20 21
15 15 16 16 16 16 16 16 17 17 17 18 19 19 19 20 20 19 19 19 19 19 19 19 19 19 19 19 19 19 19 19 19 19 19 20 20 21 20 20 20 20 20
14 14 15 15 15 16 15 16 16 16 16 17 17 18 18 19 20 19 19 18 18 19 19 19 19 19 19 19 19 19 19 19 19 19 19 19 20 20 20 20 20 20 20
14 14 13 14 14 15 15 15 15 16 16 16 16 17 17 18 19 18 18 18 18 18 19 19 18 19 19 19 19 19 19 19 19 18 19 19 19 20 20 20 20 20 20
12 12 12 13 13 14 14 14 14 15 15 16 16 16 17 17 17 17 17 17 18 18 18 18 18 18 18 19 19 19 19 18 18 19 18 18 18 19 19 18 19 19 20
11 11 11 11 12 13 13 14 14 14 15 15 16 17 17 17 17 17 16 16 17 18 18 18 18 18 18 18 18 19 20 19 19 18 19 19 19 19 18 18 18 18 19
10 10 10 10 11 11 12 13 14 13 14 15 15 16 16 18 18 17 17 17 17 17 17 18 18 18 18 18 18 18 18 19 19 19 19 19 20 19 18 18 18 18 18
9 9 9 10 10 10 10 11 12 13 14 14 15 16 17 18 18 18 17 17 17 17 16 17 17 17 17 18 18 18 18 20 20 20 19 19 19 19 19 18 18 18 18
8 9 9 9 10 10 9 10 11 11 12 14 14 16 17 17 17 17 17 17 17 17 16 17 18 18 17 17 17 18 19 19 20 19 19 19 19 18 18 19 18 17 18
8 8 8 9 10 10 10 11 11 11 11 12 14 15 16 16 16 16 16 17 17 16 16 17 17 17 18 17 18 18 18 18 18 18 18 19 18 19 19 19 19 18 18
8 8 8 9 10 10 10 11 11 11 11 12 13 15 15 15 16 16 15 15 17 16 16 17 17 17 17 17 18 18 18 18 18 18 18 18 19 18 18 19 19 19 19
10 10 9 9 11 11 11 11 11 11 12 12 13 13 14 14 15 15 15 15 16 16 16 16 17 17 16 16 17 17 18 18 17 18 18 18 18 18 18 18 18 19 18
8 9 9 9 9 10 10 11 11 12 12 12 13 13 13 14 15 15 15 15 15 16 16 16 16 16 16 16 16 15 16 17 18 18 17 17 17 18 18 18 18 18 18
8 9 9 9 9 10 10 11 12 12 13 13 13 13 14 14 15 15 15 15 15 15 15 15 16 15 14 14 14 14 14 15 16 17 18 18 18 18 17 17 18 18 18
8 8 9 10 9 9 11 10 11 12 12 12 13 13 14 14 15 15 15 15 15 15 15 14 14 14 14 14 13 13 13 14 15 16 17 17 17 17 18 18 18 18 18
8 8 9 9 9 9 9 9 10 10 11 11 12 12 13 13 13 13 14 14 14 14 14 14 14 14 13 13 13 13 12 13 14 15 17 17 16 16 17 16 17 17 18
7 7 8 8 8 8 8 10 9 9 9 10 12 12 12 11 12 12 12 12 12 12 12 11 12 12 13 13 13 12 13 13 13 14 15 15 16 16 16 16 16 16 16
7 6 6 7 7 7 8 9 9 8 8 8 8 10 10 10 11 10 10 10 11 11 10 10 11 11 12 12 12 12 12 13 13 13 14 14 15 15 15 15 16 16 16
8 8 6 5 6 5 6 7 6 7 7 7 6 7 7 9 9 8 9 9 10 9 10 10 10 11 12 11 11 11 11 11 11 12 13 13 13 16 14 14 15 15 15
8 9 8 6 5 5 5 5 5 5 4 5 5 6 6 7 7 7 7 7 7 8 8 9 9 10 10 10 10 11 11 11 11 11 11 12 12 13 14 15 14 14 14
8 9 9 8 7 6 5 5 5 3 3 3 3 3 3 3 5 5 5 6 6 6 7 7 7 7 8 9 9 10 11 11 11 11 11 12 12 12 13 14 13 14 14
10 9 9 9 8 7 6 6 5 5 6 3 2 3 2 3 3 3 5 4 4 5 5 6 6 6 6 7 7 9 9 11 11 11 11 12 12 13 13 13 14 14 14
9 9 9 9 8 8 8 7 7 6 6 6 5 3 2 2 2 3 5 5 4 4 4 4 4 5 5 5 6 7 8 9 10 11 12 11 12 13 13 13 13 14 14
9 9 8 8 8 8 8 7 7 6 6 6 6 5 3 3 2 3 3 4 4 3 3 3 3 4 4 5 5 6 7 9 11 11 11 12 12 13 13 13 14 15 15
Height
1532 1531 1532 1532 1532 1532 1532 1532 1532 1533 1534 1536 1536 1537 1537 1538 1538 1539 1539 1540 1542 1541 1543 1543 1545 1545 1544 1545 1545 1544 1544 1548 1546 1546 1547 1547 1550 1551 1551 1551 1553 1554 1554
1531 1531 1531 1530 1529 1528 1528 1528 1527 1526 1528 1529 1531 1531 1531 1532 1532 1532 1533 1534 1534 1534 1534 1535 1536 1537 1538 1539 1539 1538 1539 1541 1541 1542 1542 1544 1547 1547 1547 1548 1549 1549 1548
1531 1530 1530 1529 1528 1526 1524 1523 1522 1523 1523 1522 1524 1524 1525 1525 1526 1526 1527 1527 1527 1527 1526 1527 1528 1529 1530 1531 1531 1532 1533 1535 1536 1536 1535 1536 1538 1539 1541 1539 1541 1542 1542
1529 1529 1528 1526 1525 1523 1522 1520 1518 1518 1517 1518 1519 1520 1520 1519 1519 1519 1520 1520 1520 1520 1519 1519 1520 1521 1522 1523 1524 1525 1525 1526 1527 1528 1530 1530 1530 1532 1533 1534 1535 1536 1536
1526 1525 1524 1523 1521 1519 1517 1516 1516 1514 1513 1513 1513 1512 1513 1512 1512 1512 1512 1513 1513 1512 1513 1512 1513 1513 1514 1516 1516 1516 1518 1517 1517 1518 1520 1521 1521 1524 1527 1529 1530 1529 1530
1521 1520 1519 1518 1516 1514 1513 1511 1510 1510 1509 1508 1507 1507 1507 1506 1506 1507 1507 1507 1507 1506 1505 1506 1506 1507 1507 1508 1509 1508 1509 1508 1508 1509 1509 1510 1512 1515 1520 1521 1522 1521 1522
1518 1516 1514 1513 1511 1510 1509 1508 1506 1504 1504 1503 1503 1502 1501 1500 1500 1500 1501 1500 1500 1500 1499 1500 1500 1500 1499 1500 1501 1501 1500 1500 1501 1502 1501 1501 1502 1506 1512 1512 1512 1514 1516
1514 1512 1510 1508 1507 1505 1503 1502 1501 1500 1499 1498 1497 1498 1496 1496 1495 1495 1495 1494 1493 1492 1492 1492 1493 1492 1493 1493 1493 1493 1495 1493 1494 1494 1494 1495 1496 1500 1503 1506 1508 1510 1511
1510 1508 1506 1504 1501 1499 1497 1496 1495 1495 1494 1493 1492 1491 1491 1490 1490 1490 1490 1488 1486 1485 1485 1485 1485 1484 1485 1486 1486 1485 1484 1485 1487 1488 1488 1489 1491 1494 1498 1501 1503 1505 1504
1506 1503 1500 1498 1496 1493 1491 1488 1487 1487 1487 1487 1486 1487 1486 1485 1485 1484 1484 1482 1481 1480 1479 1477 1477 1476 1476 1478 1478 1478 1475 1473 1478 1480 1481 1482 1483 1485 1489 1491 1495 1496 1497
1503 1500 1497 1494 1491 1489 1485 1482 1480 1479 1478 1480 1480 1480 1481 1481 1480 1479 1479 1476 1475 1474 1473 1471 1469 1468 1467 1468 1469 1468 1465 1468 1469 1471 1473 1474 1475 1475 1476 1479 1482 1486 1488
1500 1497 1493 1489 1486 1484 1481 1478 1476 1475 1473 1473 1474 1474 1475 1477 1475 1473 1473 1472 1470 1469 1468 1465 1463 1461 1458 1457 1457 1458 1458 1460 1461 1463 1464 1464 1465 1466 1467 1470 1472 1476 1478
1497 1494 1490 1486 1483 1480 1477 1475 1473 1472 1470 1469 1468 1469 1470 1470 1469 1468 1468 1468 1466 1465 1462 1459 1457 1454 1451 1448 1448 1448 1450 1450 1450 1452 1452 1453 1456 1461 1463 1465 1466 1468 1470
1495 1492 1488 1483 1480 1477 1475 1474 1472 1469 1467 1466 1465 1466 1466 1466 1466 1463 1464 1463 1461 1458 1456 1453 1450 1447 1444 1441 1439 1438 1439 1441 1441 1442 1443 1446 1450 1452 1455 1458 1459 1460 1461
1492 1489 1487 1482 1478 1475 1473 1471 1469 1467 1465 1463 1461 1462 1461 1460 1461 1459 1458 1457 1455 1453 1450 1447 1444 1442 1439 1436 1432 1430 1430 1430 1431 1431 1434 1437 1438 1441 1444 1448 1449 1452 1452
1491 1489 1485 1481 1478 1474 1471 1467 1467 1464 1461 1460 1458 1456 1456 1454 1454 1453 1452 1451 1449 1447 1444 1441 1437 1436 1434 1431 1427 1424 1423 1421 1419 1419 1423 1426 1429 1432 1435 1440 1443 1442 1443
1490 1487 1483 1480 1477 1473 1470 1467 1464 1461 1459 1456 1454 1453 1450 1449 1448 1447 1446 1444 1442 1441 1438 1436 1433 1431 1429 1426 1423 1420 1416 1414 1413 1410 1411 1413 1416 1420 1427 1431 1433 1434 1433
1489 1486 1483 1479 1476 1472 1469 1466 1464 1460 1456 1454 1452 1450 1447 1445 1443 1441 1439 1437 1437 1435 1433 1431 1428 1425 1422 1420 1417 1413 1410 1406 1404 1402 1400 1401 1403 1401 1408 1417 1423 1423 1426
1488 1485 1482 1479 1476 1471 1468 1466 1463 1459 1456 1453 1451 1448 1445 1443 1440 1438 1436 1434 1431 1429 1429 1428 1424 1419 1417 1414 1411 1407 1404 1397 1396 1394 1391 1392 1394 1397 1398 1405 1411 1414 1417
1488 1485 1482 1478 1475 1472 1468 1464 1462 1458 1455 1453 1449 1446 1443 1442 1438 1436 1434 1433 1430 1428 1426 1425 1422 1416 1411 1406 1404 1402 1395 1388 1387 1388 1386 1385 1386 1386 1389 1395 1400 1405 1408
1489 1485 1481 1480 1476 1473 1467 1465 1462 1458 1456 1453 1451 1447 1444 1441 1437 1435 1433 1430 1428 1423 1421 1421 1415 1410 1404 1402 1405 1397 1393 1389 1384 1382 1382 1379 1381 1383 1386 1389 1382 1395 1400
1490 1487 1483 1481 1477 1474 1471 1468 1463 1460 1458 1454 1451 1448 1444 1441 1438 1435 1432 1430 1427 1424 1422 1416 1410 1408 1406 1403 1400 1399 1391 1389 1386 1382 1379 1379 1380 1380 1383 1382 1387 1387 1396
1490 1487 1484 1481 1479 1475 1473 1470 1465 1462 1459 1456 1453 1449 1445 1442 1439 1436 1432 1428 1426 1423 1420 1416 1411 1407 1403 1401 1399 1394 1391 1391 1387 1382 1379 1378 1378 1378 1377 1379 1383 1386 1394
1489 1487 1483 1481 1480 1477 1474 1470 1467 1464 1461 1458 1455 1451 1448 1445 1442 1438 1433 1428 1424 1421 1417 1414 1410 1407 1403 1400 1398 1393 1391 1386 1384 1382 1379 1378 1377 1377 1379 1382 1385 1389 1391
1489 1487 1484 1481 1479 1477 1475 1471 1468 1466 1463 1460 1456 1452 1449 1446 1443 1439 1434 1429 1424 1420 1416 1413 1408 1404 1400 1398 1395 1393 1390 1386 1383 1381 1380 1376 1376 1376 1377 1380 1384 1388 1390
1487 1485 1483 1481 1478 1476 1473 1470 1468 1465 1463 1460 1456 1452 1448 1445 1443 1439 1434 1430 1426 1421 1417 1413 1408 1405 1401 1397 1392 1388 1384 1380 1379 1378 1376 1376 1375 1374 1376 1378 1382 1384 1386
Wind_Speed
9 10 13 16 17 15 19 22 21 20 20 23 23 23 24 25 25 27 25 24 26 26 24 22 22 22 21 21 22 25 19 16 19 16 4 4 8 8 7 7 12 15 14
14 11 11 11 14 15 19 21 24 22 22 21 21 23 27 26 25 26 26 28 29 28 28 28 25 23 24 22 23 28 26 21 19 18 20 9 7 7 11 12 10 11 15
11 12 10 11 10 14 15 15 18 21 20 21 16 19 19 22 24 26 26 26 27 26 26 28 28 26 25 26 26 28 30 30 30 25 22 22 18 14 11 13 14 15 15
14 15 13 12 12 12 15 16 16 17 18 19 23 23 20 19 22 22 21 23 25 26 26 26 25 26 26 28 29 28 28 32 32 32 30 29 28 24 20 19 16 19 23
16 17 18 16 14 14 15 16 16 15 14 15 18 21 22 23 23 22 20 19 21 23 23 24 25 25 26 25 26 27 27 29 31 30 32 34 34 35 29 25 25 23 24
22 18 18 18 17 17 15 13 15 16 15 15 14 15 17 18 23 23 24 25 25 25 26 25 25 26 26 28 27 26 25 28 28 32 33 35 36 37 29 27 23 20 23
20 14 16 17 19 20 19 16 14 14 15 15 15 15 17 19 17 16 15 17 26 33 32 29 26 27 29 30 29 28 27 28 31 29 32 34 34 31 24 22 24 25 23
19 15 17 20 21 21 21 20 19 17 16 15 15 15 17 17 17 17 18 19 22 25 29 31 33 32 30 30 32 31 29 28 28 32 34 32 29 29 25 22 19 21 21
16 17 20 23 23 23 25 25 24 22 20 18 16 16 17 17 18 19 18 19 18 19 22 25 27 30 33 28 29 34 36 34 30 29 31 29 29 30 31 31 30 28 30
19 20 20 19 20 21 22 24 27 28 28 24 20 18 18 20 19 19 16 17 21 17 14 17 24 26 25 27 29 33 36 40 34 30 30 33 31 34 35 35 36 32 29
21 20 22 20 17 17 21 20 21 23 25 30 26 21 20 17 18 15 12 14 17 19 18 21 22 23 27 25 27 31 39 39 39 35 31 32 30 32 34 38 40 40 38
21 23 24 20 17 16 19 19 18 19 20 20 22 22 20 19 19 17 14 15 15 17 19 24 26 24 26 30 33 33 36 37 39 39 37 35 35 36 34 33 34 33 33
23 24 24 21 17 17 14 17 19 20 19 16 16 18 19 21 18 15 11 18 21 20 25 28 28 28 28 29 33 39 32 35 43 45 45 42 40 36 36 34 33 31 30
19 23 23 22 19 15 13 15 20 21 18 17 17 17 16 9 9 8 16 17 20 23 26 27 27 27 25 26 29 32 38 42 39 44 49 47 41 38 37 36 35 34 33
20 21 22 21 20 19 15 18 19 17 16 17 18 20 22 21 19 16 18 21 20 21 24 25 24 24 29 30 25 26 27 34 42 48 45 44 44 39 38 34 34 34 35
18 19 19 20 19 20 19 21 17 18 13 11 10 13 13 14 17 20 22 22 24 24 25 26 25 24 27 26 28 28 27 30 29 37 43 44 44 39 37 36 34 35 38
17 18 18 17 17 19 18 19 22 20 14 8 9 10 12 13 15 17 19 22 23 21 23 24 24 22 24 24 26 26 30 29 31 27 32 37 42 39 34 34 35 37 43
16 18 17 16 15 17 17 15 13 14 19 17 13 13 12 13 12 13 14 15 13 15 16 18 20 20 23 27 29 28 32 30 27 28 30 30 42 35 34 36 35 35 36
15 18 17 15 16 16 15 14 13 12 11 15 15 16 19 16 12 12 9 8 8 11 14 18 22 20 22 27 30 30 31 33 26 17 17 27 35 40 45 46 41 38 36
16 16 15 17 17 17 15 15 14 13 14 15 19 22 19 15 14 12 10 9 6 12 10 12 14 24 26 24 30 31 26 24 24 28 15 17 25 27 32 32 38 40 38
25 23 18 16 16 17 17 17 17 17 16 16 16 19 16 16 16 16 16 14 12 11 10 12 13 17 25 33 35 20 17 14 9 5 8 11 9 15 27 22 26 22 22
15 22 21 18 16 16 17 16 18 18 19 18 17 19 19 18 18 19 19 18 15 11 10 9 9 11 13 12 19 24 19 16 14 9 6 6 7 6 14 10 7 11 19
8 13 20 20 19 16 14 18 19 18 17 20 21 21 23 23 24 24 22 21 18 15 12 10 12 15 13 13 12 12 17 27 21 13 14 8 9 3 2 9 13 12 15
9 12 13 16 20 21 14 18 17 21 22 18 18 19 19 20 19 24 25 24 21 18 16 14 12 14 18 16 12 11 13 10 14 17 23 13 5 3 2 2 13 10 13
9 6 11 13 15 19 19 18 19 20 21 26 21 18 18 19 19 21 25 26 24 23 20 18 16 16 17 18 18 15 12 11 10 15 18 15 10 12 10 6 11 13 11
7 9 7 6 13 17 19 15 13 11 16 23 24 21 19 20 18 21 21 25 28 27 26 23 21 18 17 17 17 17 16 14 14 13 11 11 10 11 12 12 14 18 17
Wind_Direction
354 323 303 288 284 287 277 268 262 263 262 260 257 260 259 261 263 269 271 271 269 272 271 273 275 275 265 260 251 245 255 270 275 272 280 263 229 246 227 223 239 239 251
357 357 354 334 312 305 288 284 281 261 261 264 265 266 265 265 267 267 268 271 274 272 272 276 276 276 270 264 257 246 248 258 270 269 257 235 227 244 249 249 249 247 263
347 337 343 349 330 325 317 309 290 286 276 263 261 267 270 273 273 272 274 275 277 277 273 273 272 269 269 269 262 255 250 250 255 260 257 256 248 246 258 250 244 273 270
320 315 311 308 316 317 314 309 305 289 278 274 273 267 273 275 276 273 276 277 281 283 279 276 275 272 270 267 265 264 263 257 255 259 258 260 258 255 264 264 255 267 267
318 317 312 306 301 299 307 303 300 294 285 282 277 264 261 261 266 269 267 273 276 280 282 283 275 273 275 271 272 269 269 264 259 256 260 258 256 254 257 258 256 264 259
310 300 307 306 286 286 297 306 301 292 286 281 278 281 282 276 267 273 267 261 263 267 268 274 277 276 272 271 269 271 270 263 264 260 263 258 251 257 248 251 261 261 256
328 329 306 298 299 296 293 293 297 295 287 283 281 280 280 276 282 281 288 285 269 263 266 269 272 271 270 269 272 269 269 265 260 263 262 259 259 246 240 255 242 252 256
319 325 315 308 299 294 291 292 288 287 289 284 280 285 284 280 286 293 289 291 291 279 270 269 267 270 271 272 271 268 262 264 263 259 259 259 257 244 233 240 245 251 256
326 314 306 305 308 304 291 286 283 287 283 282 279 283 293 287 291 294 288 290 293 291 283 279 277 275 270 271 271 267 268 266 264 264 261 260 255 242 234 235 244 251 259
321 324 322 315 311 308 304 295 288 280 278 279 278 268 273 284 293 298 297 282 287 292 297 296 277 277 276 268 267 266 267 264 265 264 262 260 250 245 245 245 244 247 252
330 334 328 327 325 317 316 313 305 296 275 268 273 267 269 283 297 294 300 301 289 291 300 310 305 281 268 263 259 262 262 266 266 264 269 263 256 254 250 247 247 249 250
334 337 337 334 332 327 320 322 317 313 297 282 272 267 272 291 285 289 279 286 291 292 302 312 313 307 276 261 253 257 256 260 260 261 261 262 253 248 247 246 244 242 246
345 342 341 341 337 339 336 341 339 332 315 304 299 284 296 299 287 276 289 297 294 295 303 307 309 313 300 282 263 257 259 253 253 256 258 257 257 253 252 252 248 248 246
345 348 346 343 347 350 347 347 333 328 317 303 303 297 276 294 320 326 310 299 299 300 299 298 303 312 311 303 285 267 256 256 256 252 255 259 261 260 252 252 251 247 244
349 352 352 358 7 357 354 350 344 332 321 301 293 287 285 289 291 287 288 296 299 294 296 302 300 310 309 311 304 292 278 267 255 255 256 251 252 255 255 250 251 252 247
349 350 353 351 358 4 353 351 2 355 329 321 314 309 297 289 284 285 285 289 294 298 296 301 302 301 311 307 321 302 289 276 276 262 255 257 249 245 248 251 253 253 240
352 349 351 348 350 348 349 347 352 1 23 358 327 322 320 295 289 290 289 290 289 291 299 302 301 302 310 315 314 311 295 285 268 271 254 255 246 248 247 248 244 250 245
360 3 359 357 358 357 356 357 5 4 20 16 8 355 330 306 303 308 307 305 290 295 303 309 314 297 296 306 307 310 306 284 280 269 259 246 242 239 231 242 246 241 239
1 2 4 1 3 5 1 1 7 10 7 351 333 327 346 359 355 310 333 9 340 324 330 331 336 323 310 302 301 302 298 300 254 255 251 251 255 247 248 245 240 237 234
19 16 16 16 13 14 10 6 8 10 15 12 1 353 359 354 4 13 15 9 31 37 350 345 327 345 347 343 318 315 319 292 255 265 268 241 247 236 225 238 240 237 240
12 11 19 19 14 11 18 20 27 27 21 22 13 356 5 8 8 6 5 5 354 13 6 6 347 333 333 336 334 321 333 352 29 150 225 223 213 227 235 249 204 220 225
346 1 9 11 16 32 22 21 30 31 23 20 16 17 19 22 22 13 6 10 6 356 347 353 347 330 339 330 328 329 318 314 314 331 76 122 192 190 204 178 195 193 224
297 338 359 8 11 23 13 11 23 29 29 27 26 21 23 20 24 22 11 7 8 9 355 346 333 333 327 325 330 301 306 316 306 309 307 338 175 141 182 231 209 220 244
13 342 342 356 4 15 22 19 14 20 26 18 18 23 23 28 17 10 16 11 6 6 1 356 336 325 321 331 335 323 318 308 306 306 307 315 264 254 259 277 215 195 192
349 338 360 343 351 360 5 18 19 18 18 15 9 17 19 19 19 9 20 18 14 9 4 357 350 341 334 334 329 325 320 315 286 277 285 290 274 268 275 275 208 216 236
337 336 326 340 345 353 348 345 356 11 5 7 7 8 13 16 14 3 13 18 20 15 11 7 358 350 342 337 334 332 331 315 304 305 305 289 273 264 267 252 238 228 231